www.pogodaiklimat.ru

Погода и климат >> Архив погоды >> Россия >> Свердловская область >> Тавда


ПОГОДА в Тавде

  • Прогноз погоды в Тавде
  • Монитор погоды в Тавде

АРХИВ ПОГОДЫ в Тавде

Время (UTC), дата Ветер
(напр.,м/с)
 
Видим.   Явления Облачность Т
(С)
Тd
(С)
f
(%)
Тe
(С)
Тes
(С)
Комфортность P
(гПа)
Po
(гПа)
Тmin
(С)
Tmax
(С)
R
(мм)
R24
(мм)
S
(см)
15 9.09 СЗ 2 10 км {ливн. осадки} 10/3 600 м
[Cb cap Ac und]
+11.5 +10.2 92 +10 +10 1024.9 1017.6 +16.2 0.8
18 9.09 СЗ 2 10 км {ливн. осадки} 10/0
[Ac und]
+8.0 +6.6 91 +6 +6 1025.8 1018.4
21 9.09 СЗ 1 10 км ясно +5.3 +4.7 96 +4 +4 1026.4 1018.9
00 10.09 З 1 10 км {ливн. осадки} 8/3 600 м
[Cb cap Ac trans]
+4.1 +3.8 98 +2 +2 1026.6 1019.1
03 10.09 СЗ 1 10 км 10/0
[Ac trans Ci fib]
+5.1 +4.8 98 +4 +4 1027.1 1019.6 +2.0 0.3
06 10.09 СЗ 4 10 км 10/3 600 м
[Cu hum Ci fib]
+12.3 +3.5 55 +11 +13 1026.5 1019.2
09 10.09 З 4 10 км 10/5 600 м
[Cu hum Ac trans Ci]
+14.5 +3.9 49 +13 +15 1024.7 1017.5
12 10.09 З 4 10 км 10/6 600 м
[Cu hum Ac trans Ci fib]
+15.5 +5.6 52 +15 +15 1023.4 1016.2
15 10.09 ЮЗ 2 10 км 10/6 600 м
[Sc diur, vesp Ac und]
+12.7 +7.4 70 +12 +12 1022.8 1015.6 +15.7
18 10.09 З 4 10 км 10/6 600 м
[Sc diur, vesp Ac und]
+13.3 +5.1 58 +12 +12 1022.4 1015.2
21 10.09 СЗ 3 10 км 10/10 600 м
[Sc]
+12.7 +6.6 66 +11 +11 1023.3 1016.0
00 11.09 СЗ 2 10 км ясно +9.5 +6.8 83 +8 +8 1025.7 1018.3
03 11.09 С 3 10 км 10/0
[Ci fib]
+10.4 +7.7 83 +8 +9 1028.2 1020.9 +8.3
06 11.09 С 3 10 км 6/3 600 м
[Sc Ci fib]
+13.7 +6.2 60 +13 +16 1029.6 1022.3
09 11.09 С 2 10 км 6/6 600 м
[Sc]
+15.5 +4.2 47 +16 +18 1029.3 1022.1
12 11.09 СЗ 1 10 км 10/0
[Ac trans Ci fib]
+15.8 +5.2 49 +17 +18 1028.8 1021.5
15 11.09 Ю 1 10 км 10/0
[Ac trans Ci fib]
+9.3 +7.4 88 +9 +9 1028.1 1020.7 +16.5
18 11.09 ЮЗ 2 10 км 10/0
[Ci fib]
+9.7 +7.6 87 +8 +8 1026.7 1019.3
21 11.09 ЮЗ 2 10 км 10/0
[Ac und]
+9.8 +8.1 89 +8 +8 1025.0 1017.7
00 12.09 ЮЗ 2 10 км 10/0
[Ac und]
+9.8 +8.8 93 +8 +8 1023.0 1015.7
03 12.09 ЮЗ 2 10 км {ливн. осадки} 10/4 600 м
[Cb cap Ac und]
+10.4 +9.4 94 +9 +9 1021.6 1014.3 +8.5
06 12.09 З 3 10 км {ливн. осадки} 6/6 600 м
[Cb cap]
+14.6 +12.2 86 +14 +16 1020.7 1013.6
09 12.09 СЗ 5 10 км 6/6 600 м
[Sc diur, vesp]
+18.5 +9.1 54 +19 +20 1020.2 1013.1
12 12.09 З 2 10 км 10/0
[Ac und]
+17.1 +9.4 60 +17 +18 1020.6 1013.5
15 12.09 СЗ 2 10 км 10/6 600 м
[Cb cap Ac und]
+14.9 +10.1 73 +15 +15 1021.8 1014.6 +18.9 1
18 12.09 З 1 1000 м дымка 10/6 600 м
[Cb cap Ac und]
+11.4 +10.7 95 +11 +11 1022.3 1015.0
21 12.09 штиль 0 1000 м дымка 10/0
[Ac und]
+7.6 +7.1 97 +7 +7 1021.9 1014.6
00 13.09 штиль 0 500 м туман 10/0
[Ac und]
+5.2 +4.8 97 +4 +4 1021.7 1014.3
03 13.09 Ю 1 1000 м дымка {туман} 10/0
[Ci fib]
+8.6 +8.2 97 +8 +9 1020.6 1013.3 +4.9
06 13.09 Ю 1 10 км {туман} 10/6 600 м
[Sc Ac und]
+15.1 +10.4 73 +16 +16 1019.1 1011.9
09 13.09 Ю 2 10 км 10/4 600 м
[Sc Ac trans Ci fib]
+18.8 +12.2 65 +20 +22 1016.9 1009.9
12 13.09 ЮЗ 3 10 км 10/0
[Ac trans Ci fib]
+20.4 +11.5 57 +23 +23 комфорт 1015.3 1008.3
15 13.09 ЮЗ 2 10 км 10/0
[Ac trans Ci fib]
+16.0 +11.7 76 +16 +16 1014.9 1007.8 +20.7
18 13.09 ЮЗ 2 10 км 10/0
[Ac trans Ci fib]
+13.4 +10.8 84 +13 +13 1014.8 1007.6
21 13.09 ЮЗ 2 10 км 10/0
[Ci fib]
+12.9 +10.9 88 +12 +12 1014.5 1007.3
00 14.09 ЮЗ 2 10 км 10/0
[Ac und]
+12.4 +10.2 86 +11 +11 1014.1 1006.9
03 14.09 ЮЗ 1 10 км 10/0
[Ac trans Ci fib]
+12.8 +10.3 85 +13 +14 1014.0 1006.8 +11.6
06 14.09 ЮЗ 2 10 км 10/0
[Ci fib]
+19.9 +10.2 54 +22 +26 комфорт 1013.0 1006.0
09 14.09 ЮЗ 3 10 км 8/0
[Ci fib]
+22.7 +9.4 43 +24 +28 комфорт 1012.6 1005.6
12 14.09 ЮЗ 2 10 км 10/0
[Ac trans Ci fib]
+22.2 +9.6 45 +24 +25 комфорт 1012.4 1005.5
15 14.09 Ю 1 10 км 10/0
[Ac trans Ci fib]
+16.6 +11.2 70 +17 +17 1012.4 1005.3 +23.4
18 14.09 ЮЗ 2 10 км 4/0
[Ci fib]
+14.3 +10.2 76 +14 +14 1012.2 1005.0
21 14.09 ЮЗ 2 10 км ясно +13.2 +9.5 78 +13 +13 1012.0 1004.8
00 15.09 ЮЗ 2 10 км 8/0
[Ci fib]
+11.8 +8.8 82 +11 +11 1011.8 1004.6
03 15.09 Ю 2 10 км 8/0
[Ci fib]
+13.0 +8.7 75 +12 +13 1011.3 1004.1 +11.1
06 15.09 Ю 1 10 км 6/0
[Ci fib]
+20.9 +8.6 45 +23 +29 комфорт 1010.5 1003.5
09 15.09 ЮЗ 3 10 км ясно +24.2 +4.0 27 +24 +29 комфорт 1008.9 1002.1
12 15.09 Ю 3
{10}
10 км 6/6 600 м
[Cu hum]
+23.7 +2.6 25 +23 +23 комфорт 1007.6 1000.7
15 15.09 Ю 1 10 км 10/0
[Ac trans Ci fib]
+15.1 +7.2 59 +16 +16 1007.0 999.9 +24.8
18 15.09 ЮЗ 1 10 км 10/6 600 м
[Cb cap Ac trans Ci fib]
+16.8 +5.5 47 +18 +18 1006.4 999.4
21 15.09 ЮЗ 2 10 км 10/10 600 м
[Cb cap]
+15.6 +6.1 53 +16 +16 1006.6 999.5
00 16.09 Ю 1 10 км 10/6 600 м
[Cb cap Ac und]
+12.6 +7.2 70 +13 +13 1006.5 999.4
03 16.09 штиль 0 10 км 10/6 600 м
[Cb cap Ac und]
+12.5 +8.4 76 +12 +12 1005.8 998.7 +11.4
06 16.09 ЮЗ 1 10 км слаб. ливневой дождь 10/10 600 м
[Cb cap]
+12.5 +10.7 89 +12 +12 1005.0 997.9
09 16.09 З 3 4000 м слаб. ливневой дождь 10/10 300 м
[Cb cap]
+11.8 +11.1 95 +10 +10 1004.9 997.8
12 16.09 ЮВ 2 10 км слаб. ливневой дождь 10/10 600 м
[Cb cap]
+9.1 +8.6 97 +7 +7 1005.0 997.7

 

Местоположение метеостанции Тавда (Свердловская область, Россия): широта 58.07 долгота 65.27 высота над уровнем моря 60 м.

В архиве по умолчанию представлена погода в Тавде за последнюю неделю. Архивные данные за месяц целиком и за предыдущие месяцы, начиная с января 2011 года, Вы можете получить, выбрав интересующий диапазон дат из раскрывающегося списка и нажав кнопку "Ввод!".


*Определитесь, кто Вы:
робот инопланетянин человек

Внимание! Время в таблицах - всемирное. Для получения местного времени необходимо прибавить поправку, которая равна 5 ч.

Смотрите также архив погоды в соседних городах и на ближайших метеорологических станциях:

Погода в Таборах (Свердловская область, Россия) (68 км)
Погода в Нижней Тавде (Тюменская область, Россия) (69 км)
Погода в Куминской (Ханты-Мансийский АО, Россия) (86 км)
Погода в Туринске (Свердловская область, Россия) (94 км)
Погода в Тюмени (Тюменская область, Россия) (106 км)
Погода в Тугулыме (Свердловская область, Россия) (117 км)
Погода в Ярково (Тюменская область, Россия) (129 км)
Погода в Ирбите (Свердловская область, Россия) (145 км)
Погода в Ялуторовске (Тюменская область, Россия) (168 км)
Погода в Бутке (Свердловская область, Россия) (175 км)

Пояснения к столбцам:

Ветер - указаны скорость ветра в м/с - средняя за 10 мин, порывы в срок и между сроками (в фигурных скобках) и направление, откуда дует ветер: С - северный, СВ - северо-восточный, В - восточный, ЮВ - юго-восточный, Ю - южный, ЮЗ - юго-западный, З - западный, СЗ - северо-западный.
Видимость - горизонтальная дальность видимости в метрах или километрах. При видимости от 1 до 10 км при отсутствии осадков обычно наблюдается дымка, при ухудшении видимости до 1 км и менее - туман. В сухую погоду видимость может ухудшаться дымом, пылью или мглою.
Явления - указаны атмосферные явления, наблюдавшиеся в срок или в последний час перед сроком; фигурными скобками обозначены явления, наблюдавшиеся между сроками (за 1-3 часа до срока); квадратными скобками обозначены град или гололедные отложения с указанием их диаметра в мм.
Облачность - указаны через наклонную черту общая и нижняя облачность в баллах и высота нижней границы облаков в метрах; квадратными скобками обозначены формы облаков: Ci - перистые, Cs - перисто-слоистые, Cc - перисто-кучевые, Ac - высококучевые, As - высокослоистые, Sc - слоисто-кучевые, Ns - слоисто-дождевые, Cu - кучевые, Cb - кучево-дождевые. Подробнее классификацию облаков см. в Атласе облаков (PDF).
T - Температура воздуха - температура, измеренная на высоте 2 м над землей.
Td - Температура точки росы - температура, при понижении до которой содержащийся в воздухе водяной пар достигнет насыщения.
f - Относительная влажность воздуха - влажноcть воздуха, измеренная на высоте 2 м над землей.
Te - Эффективная температура - температура, которую ощущает одетый по сезону человек в тени. Характеристика душности погоды. При расчете учитывается влияние влажности воздуха и скорости ветра на теплоощущения человека.
Tes - Эффективная температура на солнце - температура, которую ощущает человек, с поправкой на солнечный нагрев. Характеристика знойности погоды. Зависит от высоты солнца над горизонтом, облачности и скорости ветра. Ночью, в пасмурную погоду, а также при ветре 12 м/с и более поправка равна нулю.
P - Атмосферное давление - приведенное к уровню моря атмосферное давление.
Po - Атмосферное давление - измеренное на уровне метеостанции атмосферное давление.
Tmin - Минимальная температура - минимум температуры воздуха на высоте 2 м над землей.
Tmax - Максимальная температура - максимум температуры воздуха на высоте 2 м над землей.
R - Количество осадков - Количество выпавших осадков за период времени, мм. При наведении курсора мыши на число - период времени, за который выпало указанное количество осадков.
R24 - Количество осадков - Количество выпавших осадков за 24 часа, мм.
S - Снежный покров - Высота снежного покрова, см. При наведении курсора мыши на число - состояние снежного покрова и степень покрытия местности в баллах.